Overview Statistics Trail Chart Weather Telemetry Raw packets
 

This is the latest recevied weather packets stored in our database for station/object KD7DVD-1. If no packets are shown the sender has not sent any weather packets the latest 10 day(s).

<< 13 14 15 16 17 18 19 >>
Time Temp. Humidity Pressure Rain* Wind** Luminosity Snow
1788024617 14.44° C 90% 1017 hPa 0 mm - - -
1788022817 14.44° C 91% 1016.8 hPa 0 mm - - -
1788021017 13.89° C 92% 1016.7 hPa 0 mm - - -
1788019217 13.33° C 93% 1016.5 hPa 0.25 mm - - -
1788017417 13.33° C 92% 1016.1 hPa 1.27 mm - - -
1788015617 12.78° C 91% 1015.6 hPa 1.78 mm - - -
1788013817 13.33° C 91% 1016.2 hPa 3.05 mm - - -
1788012017 13.33° C 91% 1015.6 hPa 6.1 mm - - -
1788010217 13.89° C 89% 1015.5 hPa 3.81 mm - - -
1788008417 14.44° C 85% 1015.4 hPa 0 mm - - -
1788006617 15° C 81% 1015.4 hPa 0 mm - - -
1788004816 15° C 78% 1015.4 hPa 0 mm - - -
1788003016 15.56° C 78% 1015.4 hPa 0 mm - - -
1788001216 15.56° C 78% 1015.6 hPa 0 mm - - -
1787999416 15.56° C 79% 1015.6 hPa 0 mm - - -
1787997616 15.56° C 76% 1015.6 hPa 0 mm - - -
1787995816 16.11° C 78% 1015.4 hPa 0 mm - - -
1787994016 16.11° C 79% 1015.4 hPa 0 mm - - -
1787992216 16.11° C 79% 1015.5 hPa 0 mm - - -
1787990428 16.67° C 78% 1015.5 hPa 0 mm - - -
1787988616 16.67° C 76% 1015.4 hPa 0 mm - - -
1787986816 16.67° C 75% 1015.3 hPa 0 mm - - -
1787985017 16.67° C 74% 1015.4 hPa 0 mm - - -
1787983217 16.67° C 74% 1015.4 hPa 0 mm - - -
1787981417 16.67° C 73% 1015.4 hPa 0 mm - - -

* Rain latest hour (hover to see other rain measurements)
** Current wind speed in m/s (hover to see current wind gust speed)